Location: Bastelaar
(51.0950°N, 3.8602°E)
Time: 06:31:09
(UTC+00:00)

Meteor 1-28 Rocket - Pass Details

Date: 18 November 2025
Orbit: 433 x 442 km, 97.6° (Epoch: 12 December)

Event Time Altitude Azimuth Distance (km) Brightness Sun altitude
Rises 16:59:41 0° 10° (N) 2,461 6.4 -10.4°
Reaches altitude 10° 17:01:44 10° 7° (N) 1,585 5.4 -10.7°
Maximum altitude 17:05:05 60° 287° (WNW) 520 3.5 -11.2°
Drops below altitude 10° 17:08:24 10° 207° (SSW) 1,573 6.3 -11.7°
Sets 17:10:26 0° 204° (SSW) 2,439 7.2 -12.0°
